Location: Newark
(35.8833°N, 14.5000°E)
Time: 03:34:53
(UTC+00:00)

Courier 1B Rocket - Visible Passes

Search period start: 19 November 2019 00:00
Search period end: 29 November 2019 00:00
Orbit: 920 x 1202 km, 28.2° (Epoch: 17 November)

Date Brightness Start Highest point End Pass type
(mag) Time Alt. Az. Time Alt. Az. Time Alt. Az.
19 Nov 6.2 16:24:26 10° WSW 16:31:29 47° S 16:38:52 10° ESE visible
19 Nov 6.6 18:18:08 10° WSW 18:24:44 32° SSW 18:27:12 27° SSE visible
20 Nov 6.5 17:16:50 10° WSW 17:23:39 38° SSW 17:30:17 12° SE visible
20 Nov 7.2 19:11:33 10° WSW 19:16:40 19° SSW 19:16:40 19° SSW visible
21 Nov 6.4 16:15:42 10° WSW 16:22:32 43° S 16:29:43 10° ESE visible
21 Nov 7.0 18:09:43 10° WSW 18:15:40 25° SSW 18:19:51 16° SSE visible
22 Nov 6.8 17:08:16 10° WSW 17:14:37 31° SSW 17:21:13 10° SE visible
22 Nov 7.6 19:04:17 10° SW 19:07:33 13° SSW 19:09:35 12° SSW visible
23 Nov 6.7 16:07:04 10° WSW 16:13:34 37° SSW 16:20:26 10° SE visible
23 Nov 7.4 18:01:42 10° WSW 18:06:34 18° SSW 18:11:33 10° SSE visible
24 Nov 7.2 16:59:57 10° WSW 17:05:35 24° SSW 17:11:27 10° SSE visible
25 Nov 7.8 17:54:43 10° SW 17:57:29 12° SSW 18:00:17 10° S visible
26 Nov 7.6 16:52:05 10° WSW 16:56:32 17° SSW 17:01:08 10° SSE visible
28 Nov 8.0 16:45:34 10° SW 16:47:29 11° SSW 16:49:26 10° SSW visible
